Preview of NWS' New Version of Forecast
This preview is not operational and should not be used for support decisions.

Regional Weather Roundup (RWR)

Issued by National Weather Service (NWS)

                            
000
ASUS45 KABQ 171201
RWRNM 
NEW MEXICO REGIONAL WEATHER ROUNDUP
NATIONAL WEATHER SERVICE ALBUQUERQUE NM
600 AM MDT SAT AUG 17 2019

NOTE: "FAIR" MEANS FEW OR NO CLOUDS BELOW 12,000 FEET AGL WITH NO
       SIGNIFICANT WEATHER OR OBSTRUCTIONS TO VISION.

      THIS PRODUCT IS RELEASED AS TWO VERSIONS.  ONE VERSION NEAR
      THE TOP OF THE HOUR CONTAINING PRELIMINARY DATA FROM ALBUQUERQUE
      AND OTHER STATIONS.  A FINAL VERSION WITH ADDITIONAL DATA IS 
      ISSUED ABOUT 10 MINUTES AFTER THE HOUR.
 
NMZ501-503-504-510>518-171300-
NORTHWEST PLATEAU/NORTHCENTRAL MOUNTAINS
  
CITY           SKY/WX    TMP DP  RH WIND       PRES   REMARKS
FARMINGTON     FAIR      54  23  30 NE8       30.05S                  
6HR MIN TEMP:  53; 6HR MAX TEMP:  64;                                

LOS ALAMOS       N/A     60  39  46 E8        30.19S                  
SANTA FE       FAIR      57  43  59 N8        30.13R                  
6HR MIN TEMP:  57; 6HR MAX TEMP:  65;                                

TAOS             N/A     49  38  65 E6        30.21R                  
ANGEL FIRE     FAIR      33  31  92 CALM      30.30S                  

$$
NMZ402-403-502-505>509-171300-
WESTCENTRAL MOUNTAINS/SOUTHWEST MOUNTAINS
  
CITY           SKY/WX    TMP DP  RH WIND       PRES   REMARKS
GALLUP         FAIR      61  37  41 CALM      30.19R                  
6HR MIN TEMP:  59; 6HR MAX TEMP:  74;                                

GRANTS         FAIR      60  37  41 CALM      30.21R                  
SILVER CITY    FAIR      65  37  35 NW10      30.10S                  

$$
NMZ407-409-411-412-171300-
SOUTHERN DESERTS
  
CITY           SKY/WX    TMP DP  RH WIND       PRES   REMARKS
DEMING         FAIR      69  46  43 SW7       30.02S                  
6HR MIN TEMP:  69; 6HR MAX TEMP:  79;                                

LAS CRUCES     FAIR      72  47  40 W10       30.02S                  
HOLLOMAN AFB   FAIR      77  54  44 SE12      29.99S                  
ALAMOGORDO     FAIR      73  50  43 S8        29.99R                  
T OR C         FAIR      73  39  29 N5        30.05R                  
6HR MIN TEMP:  73; 6HR MAX TEMP:  83;                                


$$
NMZ519>523-171300-
CENTRAL VALLEYS/CENTRAL HIGHLANDS
  
CITY           SKY/WX    TMP DP  RH WIND       PRES   REMARKS
ALBUQUERQUE    FAIR      67  33  28 E8        30.07S                  
6HR MIN TEMP:  65; 6HR MAX TEMP:  78;                                

DOUBLE EAGLE   PTCLDY    61  36  39 NW7       30.11                   
CLINES CORNERS FAIR      63  31  30 NW12      30.18S                  
6HR MIN TEMP:  60; 6HR MAX TEMP:  68;                                

BELEN          FAIR      65  32  29 SW5       30.08R                  
6HR MIN TEMP:  64; 6HR MAX TEMP:  77;                                

SOCORRO        FAIR      69  33  26 NW5       30.05R                  
6HR MIN TEMP:  69; 6HR MAX TEMP:  80;                                


$$
NMZ524>526-539-540-171300-
SOUTHCENTRAL MOUNTAINS
  
CITY           SKY/WX    TMP DP  RH WIND       PRES   REMARKS
RUIDOSO        FAIR      64  39  39 NW9       30.19F                  

$$
NMZ527>531-171300-
NORTHEAST HIGHLANDS/NORTHEAST PLAINS
  
CITY           SKY/WX    TMP DP  RH WIND       PRES   REMARKS
LAS VEGAS      FAIR      57  33  40 N7        30.14R                  
6HR MIN TEMP:  52; 6HR MAX TEMP:  64;                                

RATON          FAIR      54  39  57 NE7       30.07R                  
6HR MIN TEMP:  50; 6HR MAX TEMP:  70;                                

CLAYTON        FAIR      64  43  46 NW10      29.96S                  
6HR MIN TEMP:  60; 6HR MAX TEMP:  75;                                


$$
NMZ532>537-171300-
EASTCENTRAL PLAINS
  
CITY           SKY/WX    TMP DP  RH WIND       PRES   REMARKS
TUCUMCARI      FAIR      68  53  58 SW3       29.88R                  
6HR MIN TEMP:  68; 6HR MAX TEMP:  81;                                

CANNON AFB     FAIR      68  54  62 S8        29.95S                  
6HR MIN TEMP:  67; 6HR MAX TEMP:  76;                                

CLOVIS AIRPORT FAIR      63  57  81 CALM      29.95R                  

$$
NMZ028-029-538-171300-
SOUTHEAST PLAINS
  
CITY           SKY/WX    TMP DP  RH WIND       PRES   REMARKS
ROSWELL        FAIR      74  55  51 S13       29.90S                  
6HR MIN TEMP:  73; 6HR MAX TEMP:  84;                                

ARTESIA        FAIR      70  59  68 S5        29.93S                  
CARLSBAD       FAIR      71  54  54 CALM      29.88F                  
6HR MIN TEMP:  71; 6HR MAX TEMP:  86;                                

HOBBS          CLEAR     70  57  64 S8        29.93S                  


$$